Погода в Кимчхэке

Северная Корея     40°42′08″N   129°12′44″E
темп.,
°C
ветер,
м/с
пор.,
м/с
влажн.,
%
обл.,
%
осадки,
мм/ч
давл.,
гПа
погр.,
м
1 августа, вс
вс100:00+23сз119626 1.3 100220
03:00+23ссз229420 1.7 100218
06:00+23ссз229487 0.0 100232
09:00+28всв117640 0.1 1002599
12:00+29юв336968 1.2 10021022
15:00+28ююв3373100 3.3 1002898
18:00+26вюв2287100 2.3 1002275
21:00+23с1194100 7.3 100411
2 августа, пн
пн200:00+23с229571 2.1 100427
03:00+23ссз229470 2.9 100429
06:00+22ссз2393100 0.1 100453
09:00+25ссв1187100 0.7 100588
12:00+25в1289100 1.6 1005155
15:00+25св1288100 2.6 1005247
18:00+23всв1194100 1.3 100617
21:00+23с2293100 1.7 100734
3 августа, вт
вт300:00+22ссз2291100 0.0 100742
03:00+22ссз2292100 0.7 100724
06:00+22ссз2195100 3.0 100736
09:00+26св1183100 3.5 1008357
12:00+29юв126567 0.8 10081105
15:00+29ююв436987 0.8 1007725
18:00+27ююв2380100 0.0 1007423
21:00+23сз1194100 0.0 100811
4 августа, ср
ср400:00+22зсз1194100 0.0 100812
03:00+21сз1193100 0.0 100712
06:00+21сз229099 0.0 100729
09:00+27ююв11710 0.0 1007483
12:00+29ююв34621 0.0 1006865
15:00+30ююв44651 0.0 1005788
18:00+27ююв337842 0.0 1004430
21:00+24зюз1194100 0.1 100511
5 августа, чт
чт500:00+23ссз219499 0.0 100517
03:00+22сз119333 0.0 100414
06:00+22ссз228895 0.0 100426
09:00+28в117199 0.0 1003437
12:00+29ю227077 0.5 1003723
15:00+29ююв217348 0.6 1001545
18:00+26вюв118882 2.8 100285
21:00+23ссз11959 4.6 100212